Location: El Águila
(10.4167°N, 66.7167°W)
Time: 21:59:39
(UTC+00:00)

SWIFT - Pass Details

Date: 06 April 2023
Orbit: 527 x 541 km, 20.6° (Epoch: 28 May)

Event Time Altitude Azimuth Distance (km) Brightness Sun altitude
Rises 23:51:41 0° 292° (WNW) 2,639 7.4 -18.8°
Reaches altitude 10° 23:54:26 10° 310° (NW) 1,750 5.8 -19.5°
Maximum altitude 23:57:24 19° 357° (N) 1,270 4.3 -20.2°
Enters shadow 23:58:46 17° 23° (NNE) 1,385 4.2 -20.6°
